Theta_e
314 307 305 304 304 306 307 308 308 308 309 308 308 308 307 306 305 308 310 313 315 311 308 309 309 309 310 311 314 317 319 318 318 318 319 319 320 321 320 322 322 321 321 323 323 323 323 324 324 324 323 323 324 324 325 326 326 327 325 327 326 327 328 326 323 322 321 320 320 320 320 319 321 321 321 320 321 320 320 321 321 322 321 321 321 321
312 305 305 305 306 307 307 309 310 309 309 308 307 307 307 308 305 309 309 312 314 311 307 310 309 309 311 312 313 315 317 316 317 318 319 319 321 322 322 322 320 321 323 322 322 323 324 322 322 322 322 322 321 322 323 324 325 326 326 325 326 326 326 326 325 324 324 322 320 319 319 318 318 318 317 317 320 321 319 322 322 323 322 320 321 322
306 303 305 307 309 309 309 309 310 309 308 308 308 307 306 306 308 311 311 311 313 313 307 309 307 309 311 313 314 314 314 317 319 319 319 320 320 322 322 321 320 321 320 322 322 323 322 321 320 321 321 320 319 320 322 323 324 324 323 324 323 324 324 324 326 323 321 322 324 323 321 319 318 320 322 320 321 321 319 322 321 323 323 321 320 321
303 304 307 310 310 309 308 309 310 309 309 309 308 307 303 305 307 303 308 311 311 312 307 308 307 308 312 314 314 316 316 317 319 319 320 320 318 320 322 321 320 320 320 319 321 321 322 321 321 320 319 320 319 320 321 322 322 322 323 324 323 323 323 323 323 323 324 325 325 325 324 323 321 320 322 323 322 320 320 320 321 322 323 322 321 321
303 307 310 309 309 308 307 308 308 309 306 307 308 307 305 305 305 308 307 311 310 311 312 308 307 306 309 308 310 314 317 319 318 319 319 320 321 321 324 323 323 320 321 320 321 321 322 322 320 320 319 319 318 317 319 320 320 320 321 322 322 322 323 324 324 325 325 325 323 323 322 323 322 322 320 318 316 319 319 320 320 320 322 321 321 322
304 309 310 307 308 308 307 306 307 307 306 306 307 308 307 307 306 307 308 308 307 305 309 308 299 301 307 309 308 313 313 313 317 317 317 319 320 321 322 323 323 322 323 322 321 323 323 322 321 320 320 319 318 317 318 320 320 321 320 321 322 322 323 323 324 325 325 323 320 319 318 316 317 315 316 316 316 316 316 316 321 322 321 321 322 321
305 309 308 307 307 307 307 306 307 308 305 305 305 310 309 308 308 308 307 307 302 300 306 309 301 296 306 306 309 312 311 312 315 315 316 318 319 320 321 323 323 322 321 324 324 323 322 322 321 320 320 319 318 319 319 320 322 321 322 322 323 322 322 323 324 324 325 322 322 321 318 319 318 315 316 318 320 319 317 321 321 320 323 321 321 323
307 308 307 307 307 306 305 304 307 308 306 303 309 310 309 308 307 307 307 307 304 307 307 307 306 300 299 305 309 312 311 311 313 314 316 317 318 318 320 323 324 323 322 322 322 322 323 323 321 319 321 320 319 320 320 321 322 322 322 323 323 323 323 323 324 324 326 322 321 320 320 320 317 317 317 318 319 322 322 320 320 321 321 322 322 323
307 304 306 305 306 305 303 307 308 309 307 306 310 311 309 309 308 308 308 307 306 305 301 305 306 301 298 306 310 311 307 308 310 313 314 317 318 319 320 322 323 323 323 323 322 322 323 323 322 321 321 322 321 320 321 322 322 324 324 323 324 324 324 324 324 323 322 323 323 322 320 318 319 320 319 319 320 319 322 319 320 321 321 322 324 323
306 307 307 308 307 304 307 309 310 309 306 310 312 313 311 311 309 308 307 306 305 302 297 303 305 300 299 306 306 309 307 307 309 312 314 316 318 319 319 321 324 323 324 323 323 323 324 324 323 322 323 321 321 322 323 324 324 324 324 324 324 323 324 324 324 323 322 323 323 322 321 319 318 319 320 319 319 319 322 318 320 321 320 321 322 324
308 312 313 309 308 309 310 311 311 311 312 314 312 310 308 309 308 308 307 306 303 293 298 303 304 303 296 303 306 305 306 309 310 312 314 316 317 318 320 321 322 322 323 323 323 324 325 325 324 322 322 322 322 323 323 324 323 324 323 324 324 324 325 325 325 324 322 323 322 321 321 320 319 319 320 319 319 319 320 320 320 320 321 322 322 323
308 308 309 309 313 313 313 310 313 313 313 312 309 308 307 306 307 306 306 306 296 294 299 303 303 303 296 300 306 310 311 312 312 312 313 314 315 317 319 320 321 322 323 324 324 324 324 324 324 322 322 322 322 323 323 324 323 323 323 324 324 325 325 325 325 326 324 322 322 322 322 320 320 320 318 318 317 317 317 320 319 320 320 321 321 323
305 306 309 310 315 313 310 309 309 312 312 310 308 307 301 297 300 292 301 290 294 293 301 304 304 302 301 306 309 309 311 312 314 314 314 314 315 317 318 320 321 322 323 323 324 324 323 323 323 322 322 322 321 321 322 322 324 324 324 324 324 324 325 325 326 325 325 324 323 322 322 321 322 321 321 319 317 318 319 319 320 320 319 320 320 324
303 306 308 309 311 314 312 306 304 305 308 308 306 304 300 293 290 287 293 296 297 301 304 305 305 300 304 307 310 310 312 314 315 316 317 317 317 318 319 320 320 322 323 323 324 324 323 323 323 323 322 321 322 321 321 322 323 324 324 325 324 324 325 326 325 325 325 324 324 324 323 322 322 321 321 321 320 319 320 321 320 320 320 320 322 324
295 298 304 307 305 313 311 310 308 308 307 308 309 305 303 300 295 287 292 288 291 295 301 306 302 296 298 304 311 313 314 315 316 316 318 318 319 320 320 320 320 321 322 323 323 323 323 324 325 324 323 322 322 322 321 322 322 323 322 324 324 324 324 325 325 325 325 324 325 325 324 324 324 322 321 321 321 322 321 321 321 322 321 321 324 322
298 300 306 310 309 311 308 310 311 308 308 309 310 308 303 302 304 295 297 296 296 295 297 301 297 303 304 311 313 314 314 315 316 316 317 317 318 319 319 319 319 320 321 323 324 325 325 326 326 325 324 323 322 323 322 321 322 323 322 323 324 324 325 325 325 325 325 324 325 325 325 325 325 324 323 322 322 323 324 324 323 323 325 325 324 322
301 300 305 307 309 310 310 311 311 311 300 306 306 303 304 308 305 297 299 302 301 296 292 298 303 306 309 309 311 312 312 313 314 314 315 316 317 320 318 318 319 320 321 323 324 325 325 326 327 326 325 324 323 322 321 322 322 324 324 323 324 325 325 325 325 325 325 326 325 326 326 325 324 325 324 323 323 324 327 327 326 325 325 326 324 321
299 299 305 305 304 310 312 313 312 310 312 307 302 305 309 310 308 301 293 294 294 291 291 299 295 297 300 293 308 310 310 312 312 314 315 317 318 319 319 320 320 320 321 323 324 325 325 326 327 325 325 325 324 323 322 323 324 325 324 324 323 324 324 324 325 325 326 326 326 326 327 327 326 325 324 324 324 327 326 327 328 328 325 323 321 319
306 298 302 305 307 309 311 311 308 310 312 308 306 311 304 294 296 303 296 288 288 288 290 296 297 299 299 301 306 308 308 310 312 314 315 316 317 318 319 320 320 321 322 322 323 324 324 325 326 326 325 324 325 325 322 322 323 323 325 323 325 324 325 325 325 326 327 327 326 325 327 328 329 328 326 325 327 328 326 325 326 326 323 321 319 317
306 297 300 306 306 308 309 308 300 305 309 310 311 307 309 305 302 298 299 298 298 289 289 291 295 293 303 303 304 306 310 312 312 313 314 316 317 318 319 319 319 320 322 322 323 324 324 325 326 326 326 323 322 322 322 322 322 323 324 324 325 326 326 327 327 328 327 326 326 326 326 328 328 328 326 328 329 327 325 325 325 323 321 319 317 315
305 308 294 302 307 307 302 305 303 304 303 304 304 305 305 306 307 303 303 298 295 290 290 289 288 296 303 306 306 307 310 312 313 313 315 316 318 319 320 320 320 321 322 322 323 324 324 325 326 325 326 323 322 322 322 322 323 323 325 325 325 326 327 328 328 327 327 328 327 328 329 329 331 330 329 329 328 327 327 326 324 321 318 316 315 314
301 303 295 301 302 301 303 307 307 306 306 305 305 304 304 303 300 296 291 302 300 295 291 290 288 298 305 310 312 310 313 314 314 315 316 316 317 320 320 322 322 322 324 324 324 324 324 325 326 324 324 323 321 321 321 322 323 322 323 323 325 326 326 326 326 327 327 329 331 330 330 331 332 331 329 330 328 328 326 324 320 318 316 315 312 312
313 307 302 297 301 302 305 307 309 309 309 308 307 304 306 306 303 300 290 296 300 300 299 299 293 296 310 313 312 314 314 313 316 317 317 317 318 320 322 323 324 325 324 324 325 325 325 325 326 325 324 323 322 322 322 323 323 322 324 324 325 325 325 326 326 326 328 329 330 331 331 332 331 330 329 329 329 327 324 320 318 316 314 312 310 310
313 304 300 300 303 304 306 308 308 308 308 306 306 307 306 303 305 302 301 302 297 299 296 295 291 296 311 317 315 316 317 316 317 319 318 318 319 321 322 323 324 324 325 326 326 326 326 326 328 325 324 323 322 323 323 324 324 324 324 325 326 325 326 326 326 326 327 329 330 331 331 331 330 330 328 328 328 324 321 318 316 314 312 310 309 307
299 304 301 296 296 299 301 304 304 307 306 304 304 307 306 307 306 307 305 306 294 300 298 294 288 293 311 314 313 314 315 314 315 317 320 319 321 322 322 323 324 326 326 325 326 326 327 326 325 324 324 323 323 322 324 325 324 324 325 325 325 325 327 327 327 326 326 327 329 331 331 331 331 329 329 328 325 321 319 316 314 312 310 309 308 307
305 302 300 292 289 287 287 289 293 298 303 305 306 305 305 304 306 303 295 300 293 299 299 295 293 302 307 310 310 313 314 315 318 319 319 321 322 321 321 323 324 324 325 326 326 327 327 326 325 325 325 324 324 324 324 325 324 324 325 327 329 326 327 327 328 328 327 327 328 329 330 332 330 329 328 324 321 319 316 315 313 311 310 308 307 307
307 310 305 301 297 295 299 302 308 304 304 301 303 304 303 305 306 306 304 298 295 300 297 301 300 300 303 305 307 310 313 313 316 318 318 319 321 322 324 324 325 325 326 325 326 327 328 327 326 325 326 325 326 326 325 326 324 323 324 327 328 327 328 329 330 328 327 328 328 328 330 330 329 328 325 322 319 317 315 313 312 310 308 307 307 306
308 301 306 306 304 304 305 305 308 306 303 303 301 303 304 304 306 305 298 297 304 299 293 302 304 301 303 305 307 310 312 313 316 317 317 320 322 322 324 325 324 324 326 326 327 327 327 327 327 327 326 327 326 327 327 326 326 326 326 327 329 327 329 330 331 329 328 329 329 328 330 329 328 326 322 319 317 315 313 311 310 308 308 307 305 304
306 297 310 307 306 307 306 306 307 307 305 303 302 303 304 305 305 303 303 305 305 296 294 303 305 302 304 306 308 311 313 313 315 317 319 322 322 323 324 323 323 324 325 325 326 327 327 326 327 328 328 328 329 328 328 326 326 328 329 329 329 329 330 332 330 328 327 328 328 329 329 328 325 322 319 316 314 313 312 310 309 308 307 306 305 304
310 302 307 305 305 305 306 306 307 306 304 303 303 303 303 303 304 304 303 305 304 303 304 305 305 305 306 308 309 314 317 317 319 321 322 320 320 321 321 322 321 322 323 324 325 326 327 327 327 329 330 330 329 329 327 328 326 326 328 329 329 330 331 331 330 328 327 327 328 329 326 324 321 318 316 314 313 311 310 308 307 306 305 304 304 304
309 301 306 306 302 303 306 308 307 305 304 302 303 303 303 304 303 304 304 307 307 304 305 306 306 304 310 312 313 319 318 318 318 317 316 318 319 319 319 320 321 321 321 322 324 325 326 327 327 328 329 330 330 330 328 328 328 327 327 328 329 329 330 330 329 328 327 327 328 326 323 321 318 316 314 313 312 311 308 307 306 305 304 304 304 303
311 302 307 306 297 300 304 305 306 306 304 303 303 304 303 303 302 305 302 307 305 303 305 306 303 304 309 313 316 319 317 315 315 316 318 319 318 320 319 319 320 321 321 321 323 324 324 325 326 328 329 329 330 330 329 328 327 327 326 328 328 329 329 329 328 327 326 327 325 323 321 319 317 315 313 312 310 309 308 307 306 305 304 304 304 303
307 304 301 299 296 296 303 303 304 304 302 299 303 305 305 306 306 307 308 310 309 308 303 297 301 308 310 312 311 313 315 315 315 315 317 318 318 319 319 319 319 321 322 321 321 322 323 322 325 330 331 330 328 327 328 329 328 327 328 328 329 328 328 327 328 327 326 324 322 321 320 317 315 313 312 311 309 309 307 306 305 304 304 303 304 303
308 306 301 304 294 296 301 303 304 300 291 293 306 309 307 305 306 305 304 307 311 311 306 308 308 314 313 312 310 311 313 314 316 320 322 321 321 321 319 320 320 321 322 322 323 322 322 323 324 327 332 332 330 328 328 329 328 329 330 330 328 328 327 327 326 326 324 322 321 319 318 316 314 313 311 310 309 308 307 306 305 305 305 304 303 302
307 305 300 305 297 296 303 302 296 289 292 307 311 312 309 309 307 307 310 309 311 313 312 310 310 310 313 313 313 315 319 319 320 320 321 321 323 321 319 319 321 321 322 323 323 322 323 325 328 331 333 331 329 332 331 328 329 330 329 328 327 327 326 326 325 323 322 320 319 319 317 315 314 312 311 310 309 308 307 306 305 304 304 303 302 301
304 300 299 298 300 299 296 295 287 291 304 308 313 313 313 311 311 311 309 308 310 311 312 310 310 310 313 314 315 317 318 319 319 320 321 321 323 321 319 319 320 321 322 322 323 325 327 327 332 334 334 332 331 330 329 328 329 328 327 327 326 326 325 324 323 321 320 319 318 317 316 315 313 311 310 309 308 307 306 305 305 304 304 303 302 302
310 307 301 298 303 293 293 294 293 302 302 306 310 309 311 307 310 307 296 304 311 312 311 310 310 312 313 314 316 317 319 318 315 316 322 320 322 321 320 319 320 320 322 324 325 330 335 335 334 335 335 333 330 328 329 328 328 328 327 326 325 324 323 322 320 319 319 318 318 317 316 314 312 311 310 309 308 306 306 306 305 304 304 302 302 301
313 306 305 299 295 301 295 293 293 292 289 297 307 311 315 314 316 316 310 303 310 311 312 312 311 313 314 315 316 318 319 312 308 312 318 320 322 322 321 321 322 322 323 328 330 330 332 333 332 333 332 332 331 330 329 329 328 327 326 325 323 322 321 320 319 319 318 318 317 316 315 314 312 311 309 309 307 306 306 306 306 304 304 302 301 300
312 312 308 300 297 297 295 292 290 289 291 304 307 313 315 316 314 316 308 301 309 312 313 313 312 314 315 315 316 317 310 305 305 312 318 320 321 322 320 319 321 322 324 326 327 326 328 333 332 329 331 331 329 328 329 328 327 325 324 324 322 321 320 320 319 318 318 317 316 316 315 314 313 311 309 308 308 308 306 306 305 304 304 303 302 300
308 306 303 299 295 296 295 293 291 293 294 306 311 311 315 314 314 310 296 295 309 313 315 315 315 315 317 315 315 313 309 306 306 312 322 322 321 324 322 320 322 323 324 325 327 329 330 329 327 326 328 328 329 329 328 326 325 325 323 321 322 320 320 319 319 318 317 317 316 315 314 314 313 311 310 309 308 308 307 306 305 304 303 302 301 300
301 299 301 296 298 297 293 295 297 296 308 313 310 314 312 316 311 297 291 299 312 314 315 317 317 318 319 318 315 310 313 315 316 322 326 324 324 325 326 326 325 325 324 325 327 321 326 326 325 325 326 327 328 326 326 324 324 323 322 322 321 320 320 319 318 317 316 316 315 314 314 313 312 311 310 309 308 308 307 306 304 304 302 301 301 300
302 302 299 299 296 296 299 295 296 299 309 312 315 312 313 309 295 295 306 317 316 314 318 318 319 319 320 320 316 317 322 321 322 323 324 326 324 326 325 326 325 325 327 326 323 324 326 324 327 327 325 326 325 324 324 323 323 321 321 320 321 320 319 317 316 316 315 314 314 313 313 313 313 312 310 309 309 307 305 305 305 304 302 300 299 299
301 296 296 296 300 300 296 294 294 290 301 314 313 310 311 301 303 311 314 316 318 317 317 318 320 320 320 318 320 323 321 321 322 322 324 325 326 326 325 325 325 325 325 325 324 325 326 326 325 324 325 324 324 323 323 323 322 321 320 321 320 318 317 316 315 315 314 313 312 312 312 312 312 311 309 309 308 306 305 304 304 303 302 300 299 298
311 297 297 299 305 295 295 292 293 301 312 316 314 303 312 316 318 318 318 314 317 318 317 316 319 320 320 320 319 319 322 322 322 322 322 323 324 326 326 326 326 327 326 326 326 325 327 326 325 325 324 323 323 323 323 323 321 320 321 320 318 317 316 315 314 314 312 312 312 312 311 311 310 310 309 308 307 306 305 304 303 302 300 299 298 297
311 307 308 298 307 299 298 301 311 314 314 316 316 316 319 321 320 318 318 317 317 317 319 317 317 322 322 321 321 321 320 321 321 323 321 323 324 325 324 325 326 326 325 325 325 325 326 326 326 324 323 323 323 323 324 324 322 321 321 318 317 315 315 314 313 312 311 311 311 311 310 309 309 308 308 307 306 305 304 304 302 299 299 299 298 297
310 310 312 310 307 312 313 314 316 315 316 317 317 317 318 319 322 323 320 318 319 320 320 320 320 322 323 324 320 319 318 320 323 322 322 323 322 324 325 324 324 326 326 326 326 324 326 327 326 325 323 322 323 323 323 324 324 322 320 318 317 316 315 313 313 312 311 310 310 309 308 307 307 307 307 306 306 305 304 303 301 300 298 298 298 297
310 310 310 307 311 305 299 314 313 313 315 316 316 318 320 320 320 322 322 323 322 323 322 323 322 324 325 323 321 318 318 321 322 322 323 322 321 323 324 323 325 325 325 325 326 324 327 326 325 324 323 322 323 323 323 324 324 323 319 317 317 316 315 313 313 311 310 310 309 309 308 308 306 305 306 305 305 304 304 302 301 300 298 298 297 297
307 310 310 309 309 306 306 311 314 315 314 314 314 313 314 315 318 322 322 322 322 323 322 322 323 321 323 323 324 322 319 323 320 322 320 321 322 322 323 323 324 324 326 327 326 326 327 326 325 325 324 322 322 323 323 323 323 321 319 318 317 316 314 313 312 311 310 310 308 307 308 307 301 304 304 304 304 302 302 301 301 300 298 298 297 296
305 308 300 308 308 309 312 312 311 316 315 313 313 313 314 314 316 319 320 321 322 322 323 324 323 321 322 321 324 324 322 322 322 321 320 321 322 323 323 323 324 325 325 325 325 325 325 325 324 325 324 323 323 322 322 322 322 320 319 318 317 315 314 313 310 311 311 309 308 307 307 306 304 304 304 303 304 303 303 301 301 300 300 300 300 299
308 306 307 309 305 303 304 306 309 305 305 310 311 311 312 313 316 317 318 318 319 319 320 320 322 324 322 323 322 321 319 321 325 325 321 320 322 324 324 323 324 325 324 326 325 326 326 326 326 325 324 323 323 322 321 322 321 320 319 318 317 316 314 312 311 311 310 308 308 307 306 306 304 304 303 303 302 302 301 291 291 297 300 300 292 286
302 302 304 303 303 303 307 307 309 310 314 311 310 310 311 312 315 315 314 316 318 319 320 321 320 321 322 324 323 321 321 321 322 324 323 321 323 325 325 324 323 323 323 324 323 324 325 325 325 325 324 323 322 321 321 321 320 319 318 317 317 316 315 312 310 310 309 308 307 305 306 305 304 304 304 303 302 302 300 299 297 288 286 291 293 290
Wind_Speed
1 5 2 3 6 4 2 3 4 3 4 6 5 3 5 5 6 5 4 4 1 2 4 3 5 6 7 6 8 8 7 8 9 9 8 8 7 7 7 7 8 8 8 8 8 7 7 7 5 4 4 4 5 4 4 4 5 5 5 5 5 4 3 2 2 2 3 3 3 4 4 4 4 4 5 5 6 6 6 7 7 7 7 7 7 7
5 4 0 5 6 4 3 2 2 2 3 4 5 4 4 1 5 4 4 2 2 5 5 1 3 6 7 7 7 8 8 9 10 10 9 9 8 7 8 8 8 7 8 9 7 7 6 6 6 5 4 5 5 4 5 5 5 5 5 5 4 3 2 2 2 2 2 3 5 4 5 5 5 5 5 5 5 5 6 6 7 6 6 7 7 7
5 3 4 4 3 2 3 4 4 3 4 3 4 3 4 5 6 6 3 1 1 4 6 4 3 5 6 6 6 7 8 8 9 9 9 10 9 8 7 8 9 8 8 8 7 7 6 6 6 5 5 5 5 5 6 6 6 6 6 5 4 3 3 3 2 2 4 3 4 4 4 4 5 5 5 5 5 5 6 5 6 6 6 7 7 7
3 4 6 4 3 4 5 6 6 5 2 2 3 1 6 5 4 5 5 3 3 2 4 6 4 5 5 5 6 6 7 6 7 8 8 8 9 9 9 8 8 9 9 9 9 8 7 6 5 6 6 6 5 5 6 6 6 5 5 5 4 4 4 4 4 4 4 4 4 4 4 5 7 5 4 3 3 5 5 6 6 6 6 7 8 7
6 5 4 3 2 2 4 7 7 4 4 5 5 4 3 3 2 5 7 5 4 4 2 6 4 6 7 8 7 8 8 7 8 8 8 8 7 8 8 8 8 9 10 9 10 9 8 7 7 6 7 6 5 6 6 6 5 5 7 6 5 5 5 4 4 3 3 4 4 4 4 4 5 4 4 4 5 4 5 5 6 6 5 6 6 6
0 5 2 2 2 3 3 6 6 3 5 4 5 5 5 4 2 5 7 7 6 6 6 5 5 5 9 10 9 9 9 10 9 10 11 10 10 9 9 9 9 8 8 10 10 10 9 8 7 8 7 5 6 7 7 7 7 7 7 7 6 5 5 4 4 3 4 5 5 5 4 5 5 6 5 5 5 5 5 6 4 5 5 5 5 6
4 2 3 2 3 3 3 2 3 6 2 1 6 3 5 5 4 4 5 6 1 2 6 3 5 4 7 9 10 11 11 11 10 12 12 11 11 10 9 9 9 10 10 9 9 10 10 9 8 8 7 7 7 7 7 8 7 8 7 6 6 6 5 4 3 3 4 5 5 5 7 7 5 6 5 4 4 5 6 5 5 4 3 4 5 5
2 2 2 3 3 3 3 3 4 5 3 5 6 5 5 6 7 5 2 2 3 2 4 4 4 4 3 7 10 12 11 12 13 13 13 12 13 12 11 11 10 11 11 10 10 10 10 10 9 9 8 7 7 8 7 7 7 7 6 6 6 5 5 4 4 4 3 5 5 6 6 6 7 6 6 5 4 3 4 4 5 5 3 4 4 4
1 1 2 3 3 2 0 5 6 2 4 6 7 7 5 6 6 3 2 2 3 2 4 4 3 5 3 6 6 11 11 12 13 14 14 14 14 14 13 12 12 12 12 10 10 11 11 11 10 9 9 8 9 8 7 7 7 7 6 5 5 5 4 4 4 4 4 4 5 6 6 6 6 7 6 6 5 5 3 4 3 3 3 3 4 5
2 4 1 0 2 2 4 3 5 3 4 5 7 4 4 5 5 1 2 1 2 3 4 2 0 4 4 7 7 8 9 11 13 14 14 15 15 14 14 13 13 12 11 12 11 11 11 11 11 10 9 10 9 8 8 7 7 6 5 5 5 6 4 4 4 4 4 4 3 5 5 6 6 6 5 6 5 5 4 4 3 2 3 3 4 5
5 2 2 1 2 5 7 6 3 2 7 11 8 7 7 6 4 4 2 1 2 1 4 1 2 5 1 5 5 8 8 9 9 11 12 14 15 15 14 14 13 12 12 11 11 11 11 12 12 11 9 10 9 8 8 7 8 7 5 5 6 6 4 3 4 4 4 3 3 4 5 5 6 7 6 6 6 5 4 5 3 3 3 3 4 4
6 7 4 3 3 7 8 9 5 6 12 11 6 5 5 5 3 4 3 3 3 5 4 1 3 5 4 6 4 5 5 5 5 9 13 15 16 15 14 14 14 13 12 12 11 12 12 12 12 11 11 11 11 9 9 8 7 7 6 5 5 5 4 4 3 3 4 3 3 3 3 4 4 5 5 5 5 6 6 4 3 2 2 3 4 4
7 4 5 7 3 8 9 8 7 7 8 6 3 5 5 1 3 1 5 1 3 5 5 1 2 5 6 2 4 7 6 6 5 4 9 13 16 16 16 15 13 13 13 12 11 11 12 12 13 13 12 12 11 10 10 9 8 7 7 6 6 6 5 4 4 3 4 3 3 2 2 3 2 2 3 5 4 2 3 3 3 3 3 4 4 5
6 6 8 7 5 7 7 3 7 6 7 6 5 3 4 1 2 2 3 2 3 5 3 1 2 5 2 4 3 3 4 4 6 6 5 7 13 15 15 15 14 13 13 12 12 12 12 12 13 13 13 12 11 11 11 10 9 8 6 7 6 6 5 5 4 4 4 4 3 3 2 2 2 3 2 1 3 3 1 1 2 3 4 4 4 4
0 4 7 8 3 9 7 5 2 3 6 4 3 4 4 3 4 2 5 4 4 4 4 3 5 3 4 0 1 3 3 1 3 5 7 7 7 12 14 15 15 15 14 13 12 12 12 12 13 13 13 12 12 12 11 10 10 9 8 8 7 7 6 6 5 4 4 4 4 4 3 2 1 2 2 1 1 1 2 2 3 3 4 3 4 5
3 4 8 2 5 7 5 1 2 1 4 1 1 3 4 2 2 4 5 4 5 3 3 2 2 4 5 5 4 3 3 5 4 6 7 9 8 10 13 14 15 14 14 13 13 13 12 12 13 12 12 12 11 12 11 12 10 9 9 9 8 8 7 6 6 5 4 3 3 4 4 4 3 2 1 1 1 0 1 2 3 2 2 3 4 5
3 4 4 6 3 7 4 3 3 4 4 5 5 2 2 4 4 0 3 1 2 5 2 2 3 3 7 5 2 3 6 6 4 5 8 10 10 9 11 13 14 14 14 13 13 12 13 12 12 12 12 11 11 12 12 12 11 11 10 9 9 8 7 7 6 6 5 4 4 4 4 4 4 4 3 2 2 2 1 1 1 1 3 4 4 4
6 5 4 7 7 4 1 3 1 1 2 4 2 3 3 3 6 2 3 1 2 3 1 2 6 3 2 0 3 3 4 5 5 6 8 10 11 11 11 12 14 14 14 14 13 13 13 12 13 12 12 12 12 12 12 12 11 10 10 10 10 9 8 8 7 6 5 5 4 4 4 5 5 4 4 3 4 3 2 1 1 2 3 4 4 4
5 3 6 3 2 6 5 5 6 3 4 5 6 4 6 1 4 4 2 2 3 2 3 2 4 1 5 6 2 5 4 5 5 7 9 11 11 11 11 14 14 14 13 13 14 13 13 12 12 11 12 12 12 12 12 12 12 11 11 10 9 9 9 8 6 6 5 5 4 3 4 4 5 5 4 3 3 3 2 1 2 4 5 5 5 5
3 4 5 4 4 6 6 7 3 5 5 2 2 4 1 4 6 2 3 5 4 3 2 4 6 3 4 7 5 2 4 5 6 7 8 9 10 9 10 13 15 14 13 13 13 13 13 12 12 13 12 12 13 13 12 12 12 12 11 10 9 8 7 7 7 6 6 5 5 4 3 4 3 3 4 3 3 2 2 3 4 6 6 6 5 6
2 1 1 7 4 6 6 6 4 3 4 6 5 4 4 3 3 4 2 4 4 4 3 4 3 3 6 6 5 3 1 5 6 7 6 7 9 9 10 12 14 14 13 13 13 13 14 13 12 13 12 12 12 12 11 11 12 11 10 10 10 10 9 9 7 7 6 5 5 5 4 2 3 3 3 3 3 2 3 5 5 6 6 6 6 6
1 4 0 6 6 6 1 3 4 3 3 3 2 3 3 3 4 3 0 3 3 4 4 4 4 6 6 3 2 2 1 3 6 6 6 8 9 9 10 11 13 13 13 13 13 13 13 13 13 13 12 11 11 12 13 11 11 12 12 10 10 10 9 9 8 8 7 6 5 5 3 3 3 4 4 4 4 5 6 6 6 7 7 7 7 6
4 1 2 3 4 1 5 4 2 4 5 5 4 3 3 3 4 5 3 1 4 2 6 4 4 4 6 4 2 1 0 2 2 3 5 7 9 10 10 11 12 13 14 13 13 13 13 13 12 13 13 13 13 12 12 11 11 11 11 11 10 10 10 9 8 7 6 6 5 4 3 3 4 4 5 5 5 7 7 7 8 7 8 7 7 6
2 3 3 4 0 2 3 2 2 1 4 6 7 6 4 5 4 6 5 5 5 0 3 3 3 2 7 2 2 1 0 1 2 5 6 7 7 9 10 11 12 12 13 13 12 11 12 12 12 12 14 14 13 12 12 11 11 10 10 10 10 10 10 9 8 7 6 6 5 4 4 4 4 5 5 6 6 8 8 8 8 8 8 8 7 7
3 3 5 3 3 3 6 6 6 3 5 6 5 4 7 3 3 2 3 1 5 0 4 5 4 3 6 2 2 1 2 3 4 5 6 7 7 8 10 10 10 11 11 12 13 12 12 12 13 13 13 13 13 13 12 12 11 11 10 10 10 9 9 8 7 7 6 6 6 5 5 5 5 6 6 7 7 8 9 9 8 8 8 8 8 7
5 2 3 3 3 3 2 2 1 3 5 3 2 3 5 7 5 4 3 3 4 4 6 3 3 6 9 0 2 2 3 4 4 5 6 6 9 9 9 10 10 11 11 12 12 12 12 12 12 13 13 12 13 13 13 13 12 12 11 11 9 9 8 8 7 7 6 6 6 6 6 6 6 8 9 9 9 9 9 9 9 9 8 8 8 7
2 1 5 6 7 6 5 6 4 5 2 5 5 5 5 5 5 6 5 5 3 2 5 3 5 8 7 6 2 2 2 4 6 6 7 7 8 9 9 9 10 10 11 13 12 11 11 11 13 13 13 12 12 12 12 12 13 12 11 11 10 9 8 7 7 7 7 7 6 6 6 7 8 8 9 9 9 9 9 9 9 9 9 8 8 7
2 5 3 4 5 5 5 3 2 3 5 2 3 4 4 5 5 6 4 3 5 5 3 7 5 6 7 6 4 3 2 2 3 6 7 8 8 8 9 9 10 10 10 11 11 12 12 12 12 12 12 12 12 12 11 11 11 11 11 10 10 9 8 6 7 7 7 6 6 5 6 7 8 9 9 9 10 9 9 9 9 9 8 8 8 7
4 3 4 4 2 1 1 0 1 2 3 2 3 2 5 6 6 7 7 5 5 4 6 7 4 7 7 6 4 3 1 2 3 5 5 8 9 9 10 11 11 11 11 12 12 11 12 12 11 11 12 11 11 11 12 12 11 10 9 9 9 9 9 8 7 7 7 6 6 7 8 8 8 8 10 10 10 10 10 10 9 9 8 8 7 6
4 2 3 3 1 2 3 2 2 5 3 5 5 4 3 5 6 7 6 3 6 7 6 6 6 9 7 6 4 3 1 1 4 5 6 8 9 10 10 11 12 12 12 12 12 12 11 12 12 12 12 11 12 12 12 11 11 11 11 9 9 9 8 8 7 7 7 7 7 8 8 9 9 10 10 10 10 10 10 10 10 9 9 8 7 6
4 1 2 4 6 5 3 2 3 5 5 6 4 4 5 5 5 4 5 3 4 8 8 7 6 9 1 3 2 3 2 2 4 6 7 7 9 10 10 11 11 12 12 12 11 11 11 11 12 11 12 12 12 12 11 11 11 10 10 9 9 9 8 8 7 7 7 7 8 8 9 9 10 10 11 10 10 10 11 11 9 9 9 8 7 7
4 1 3 4 4 4 5 4 3 4 7 6 6 5 5 5 7 5 5 4 6 4 2 4 6 3 6 3 3 2 4 6 6 6 7 7 8 9 9 10 11 11 12 12 12 11 11 12 11 11 12 12 12 12 11 10 10 10 10 9 9 8 8 7 7 7 7 8 8 9 10 10 11 11 11 11 11 11 10 10 10 9 8 8 7 6
1 3 4 3 3 1 5 2 3 4 6 8 4 2 2 3 4 2 3 3 6 4 5 3 5 6 3 2 2 4 5 6 6 7 7 8 8 9 10 9 10 10 11 11 12 12 11 12 12 11 11 10 10 11 11 10 9 9 9 9 8 8 8 8 8 8 8 9 9 10 10 10 11 11 11 11 11 10 10 10 10 9 8 8 7 6
3 3 1 0 2 2 3 1 3 6 4 3 4 2 3 3 2 4 3 5 6 7 5 6 7 2 2 2 2 2 5 5 4 3 2 5 7 7 8 8 9 10 10 10 10 11 11 10 9 9 9 9 9 9 8 9 8 7 7 8 8 9 8 9 9 9 9 10 10 11 11 11 11 12 11 11 11 10 10 10 9 8 7 7 7 6
4 2 1 1 2 0 3 4 4 3 1 5 3 1 2 4 5 6 5 5 2 6 8 9 8 8 5 4 2 1 2 3 2 3 6 6 6 6 7 8 8 8 9 9 10 10 9 9 8 7 8 8 8 7 6 7 7 8 8 8 9 8 9 9 10 10 10 11 11 11 11 12 12 12 12 11 11 10 10 10 9 9 7 6 6 6
3 2 1 1 1 1 2 2 1 2 5 1 3 2 1 2 2 4 7 3 1 3 4 6 8 8 2 3 2 1 2 2 2 4 4 6 6 6 6 7 8 9 10 9 10 9 8 9 8 8 7 6 7 7 8 8 8 9 9 9 9 9 9 10 10 10 11 11 11 12 12 12 12 12 12 12 11 10 10 10 9 8 7 6 6 5
3 1 2 1 0 1 2 0 2 2 3 5 4 3 2 1 2 2 2 7 6 4 3 5 8 4 0 2 3 4 3 4 5 6 7 7 7 6 6 7 7 9 9 8 8 7 6 5 5 6 6 6 7 7 8 8 9 9 9 10 9 10 10 10 10 10 11 11 12 12 12 12 13 12 12 11 11 11 10 9 9 8 6 7 6 6
3 4 2 2 1 3 3 2 0 1 2 4 5 3 1 1 3 3 3 6 7 6 4 5 5 1 3 5 5 5 5 5 5 6 8 8 8 7 6 4 5 5 6 7 6 5 5 5 4 6 6 7 7 7 7 8 9 9 10 10 10 11 11 11 11 11 12 12 12 12 12 12 13 13 12 11 11 11 10 9 7 7 6 6 6 6
2 4 3 3 1 2 2 1 2 0 2 4 5 3 1 0 3 1 5 4 7 6 6 4 2 3 5 7 7 6 5 4 2 4 8 8 8 8 7 7 7 6 6 6 6 6 6 6 5 6 6 6 7 7 7 8 9 9 10 11 11 11 11 11 11 11 11 12 12 12 12 12 12 12 12 11 11 10 10 9 8 7 6 6 6 6
5 5 2 3 1 2 1 1 2 1 1 4 4 2 2 2 1 4 2 5 8 7 6 4 1 4 6 7 7 5 4 2 5 7 4 4 6 6 7 8 8 7 7 6 5 4 6 7 7 6 7 7 7 7 8 8 9 9 9 10 11 11 11 11 12 12 11 12 12 12 11 11 11 11 11 11 11 9 9 8 7 7 6 6 5 5
4 2 2 3 2 3 2 1 1 2 3 2 0 1 1 1 3 2 4 5 6 6 6 3 3 3 5 6 5 3 5 8 7 6 4 3 4 5 4 3 5 6 7 7 7 7 7 7 7 7 7 6 7 7 8 8 8 9 9 9 10 11 11 11 11 12 12 12 12 12 12 11 11 11 10 10 10 9 8 7 8 7 7 6 5 5
4 3 0 1 3 2 1 2 2 4 4 1 3 1 2 3 0 6 5 2 3 6 4 3 2 2 3 4 4 5 6 6 5 4 4 3 3 3 3 5 5 4 5 6 8 7 6 7 7 7 7 7 8 8 8 8 9 9 9 9 9 11 11 12 12 12 12 13 12 12 11 11 11 10 9 10 10 9 8 7 8 7 7 5 5 6
4 3 3 3 2 0 2 1 2 2 2 1 6 5 2 2 8 4 5 3 1 3 4 4 3 2 3 3 4 1 2 3 2 2 3 2 1 2 4 4 5 6 7 7 8 7 7 8 8 8 8 7 7 7 7 9 10 9 9 9 10 10 11 12 12 12 12 12 12 11 11 11 11 9 8 9 9 10 9 8 8 7 6 6 6 6
3 3 2 2 2 1 3 2 2 4 4 4 6 2 4 5 6 6 7 4 3 2 3 5 4 2 2 1 1 2 2 2 1 1 1 2 1 2 2 4 4 3 5 7 8 9 8 8 8 8 7 7 7 6 7 9 9 9 10 11 9 10 11 11 12 12 12 11 11 11 10 11 10 9 9 10 9 9 9 8 8 7 6 6 6 6
5 4 5 1 3 1 2 4 6 5 5 2 3 5 6 5 3 4 5 6 4 3 3 2 6 3 3 2 1 1 2 3 3 2 3 2 3 4 4 5 5 6 7 8 9 9 7 8 10 9 8 7 8 6 7 8 9 11 11 10 10 11 12 12 12 11 11 11 11 11 10 10 10 10 9 9 9 9 8 9 8 6 6 6 5 5
6 5 3 5 3 3 4 5 4 7 8 6 3 2 5 5 3 3 5 5 3 5 5 5 3 3 3 3 2 3 2 1 3 4 4 4 4 3 3 4 5 6 7 7 8 9 7 8 9 10 10 8 8 7 7 7 9 11 10 10 10 11 12 12 12 11 11 11 10 11 11 11 10 10 10 10 8 8 7 8 7 6 6 6 5 5
7 7 2 2 3 3 4 6 9 9 9 10 8 8 7 9 8 8 6 5 5 3 2 3 5 6 2 4 3 0 1 3 3 3 4 4 4 4 5 6 7 8 9 9 9 10 8 10 9 10 10 10 8 7 7 8 8 8 10 10 11 11 11 11 11 11 11 11 10 10 10 11 9 9 9 9 8 7 7 7 6 6 7 6 5 5
4 11 5 4 3 3 8 9 8 10 12 12 10 9 11 12 12 11 7 5 6 5 4 3 1 2 3 4 4 3 1 2 3 3 4 4 4 5 6 7 8 8 7 7 9 9 9 9 10 10 10 9 8 8 8 8 8 9 10 10 11 11 11 11 11 11 11 12 10 10 10 10 11 11 9 9 8 7 7 7 7 7 6 6 6 6
8 10 1 5 1 8 8 11 14 4 10 16 14 12 10 10 10 11 10 9 7 5 4 2 1 3 2 3 5 6 6 3 2 4 4 3 4 5 5 6 8 9 8 9 9 9 9 10 10 11 10 9 9 8 8 9 8 10 11 11 11 11 12 11 12 10 11 11 10 9 10 9 10 9 9 9 8 7 7 7 8 7 5 5 5 4
5 0 7 5 4 3 4 7 11 2 1 10 13 13 13 12 11 11 11 11 11 10 9 8 4 0 2 2 3 3 4 6 4 3 5 4 4 4 6 7 8 9 9 8 7 8 8 9 11 11 11 9 9 9 9 9 9 10 10 11 11 12 12 12 11 11 11 10 10 10 10 9 10 9 9 9 9 8 5 11 10 7 1 6 7 9
5 5 6 4 2 3 7 8 6 5 3 7 9 11 11 11 10 12 13 12 12 11 10 9 8 6 4 3 2 4 3 3 3 3 5 5 4 3 5 8 9 10 10 10 9 10 9 9 10 11 11 9 9 10 10 9 10 11 11 11 12 12 12 13 11 10 10 10 10 11 10 10 10 10 9 9 9 8 8 8 5 8 10 9 10 7
Wind_Direction
203 269 283 16 28 20 19 347 14 13 45 95 91 114 84 101 106 106 100 109 116 238 76 86 113 135 144 149 146 145 164 167 165 169 168 165 167 163 154 161 153 144 133 128 131 129 117 123 125 120 119 105 106 101 103 112 118 133 131 132 128 120 127 141 111 60 33 44 86 60 66 71 63 64 72 59 45 44 45 33 39 43 44 48 49 53
239 257 319 37 22 11 3 118 155 130 120 72 93 106 115 68 102 90 114 124 114 294 112 136 143 135 140 147 155 156 173 177 177 176 175 169 169 167 164 161 149 133 127 138 139 130 136 133 129 127 121 121 103 97 100 106 116 118 123 121 118 127 120 89 52 69 60 25 35 41 42 44 38 42 49 57 58 54 55 42 46 45 46 65 67 64
214 259 24 43 60 71 124 161 173 145 123 117 66 94 112 83 93 109 132 164 169 262 117 162 178 141 140 155 160 178 185 183 186 183 179 175 172 172 172 163 151 148 147 148 141 146 145 141 132 119 102 91 92 98 106 113 118 124 122 120 121 111 121 112 124 122 80 72 52 44 53 45 89 59 40 53 48 52 61 46 58 58 55 69 75 75
252 84 53 85 115 132 144 164 171 157 140 99 121 349 51 114 218 128 139 188 168 295 131 173 191 140 153 165 176 188 198 187 190 191 187 192 183 178 176 169 163 157 155 157 154 154 153 143 128 129 117 104 105 112 109 112 116 114 110 109 107 104 95 101 90 75 78 69 82 72 68 56 38 76 97 99 77 73 70 73 58 62 65 59 65 57
329 57 92 114 156 192 155 166 182 184 93 66 44 63 107 147 110 337 121 163 168 157 193 174 197 160 181 178 189 187 196 197 194 197 203 198 201 189 176 176 172 166 164 160 159 161 158 156 149 136 122 129 113 100 105 113 114 108 109 106 103 100 93 86 93 88 91 110 107 95 98 99 117 102 81 77 74 70 88 85 85 73 56 63 63 59
308 79 72 225 197 191 167 179 205 288 105 104 54 35 67 116 118 121 141 173 177 148 180 215 201 170 166 188 187 171 186 199 192 202 203 198 196 196 193 186 176 173 165 170 167 162 160 157 148 137 139 126 110 107 111 112 112 110 105 101 99 95 91 93 92 92 103 97 97 107 101 95 84 77 78 77 73 78 74 80 79 70 58 64 47 50
12 73 261 254 210 172 200 247 165 276 69 159 101 127 118 115 120 137 162 236 68 67 124 205 301 112 162 185 184 171 189 195 190 204 204 200 198 196 197 189 182 180 170 174 168 165 163 158 154 148 148 139 128 120 124 121 119 113 107 104 102 99 97 96 103 112 105 101 93 80 83 81 83 91 83 86 89 84 96 94 87 77 59 48 51 25
170 130 186 217 196 178 184 191 174 254 297 81 130 154 145 139 142 161 202 337 62 110 130 233 273 320 158 170 179 178 190 194 196 201 205 201 202 198 197 191 187 184 178 172 173 166 162 163 162 162 152 154 141 140 138 132 128 123 123 118 113 107 101 97 117 128 115 105 103 98 86 79 79 82 93 96 91 87 90 82 79 95 77 53 37 28
274 133 205 167 177 187 74 32 134 232 346 96 157 168 150 151 146 164 290 28 30 258 138 164 205 235 156 117 172 177 196 202 204 203 202 203 199 197 196 192 186 187 177 177 171 170 167 167 168 165 159 151 152 156 146 149 140 137 134 136 125 118 120 113 107 107 102 102 101 97 102 99 97 99 102 102 96 94 84 96 92 52 60 60 33 21
120 346 228 162 245 88 77 123 142 164 132 132 152 162 136 146 167 201 260 239 126 248 83 68 235 288 117 133 162 184 217 209 209 206 203 199 198 194 193 192 187 184 179 179 174 171 168 167 170 168 160 157 159 159 158 158 152 150 152 153 150 133 137 130 128 112 111 114 118 111 105 106 103 99 90 95 102 99 111 109 84 68 34 23 36 15
72 67 357 312 27 89 115 99 110 96 82 137 160 153 157 168 187 207 281 278 223 182 75 88 239 285 285 118 153 179 202 220 208 200 201 197 195 195 190 191 186 185 181 178 175 169 168 168 170 172 167 160 163 165 169 167 165 160 169 166 162 146 137 152 137 130 125 123 118 110 110 105 104 91 100 108 99 103 103 75 85 59 43 19 20 4
131 143 182 74 129 118 126 111 106 120 138 159 171 186 170 188 190 221 212 212 247 86 91 133 274 235 266 123 151 168 163 188 207 191 192 195 193 192 188 190 188 184 182 178 178 172 168 167 174 173 174 169 169 171 176 178 178 173 176 177 176 168 175 172 166 161 145 136 117 104 108 100 93 93 90 80 81 80 88 87 61 46 26 16 10 10
168 111 85 132 146 159 139 122 118 143 163 223 197 215 257 85 220 172 187 186 44 33 52 324 194 206 230 345 98 161 185 183 206 209 185 194 194 189 187 188 187 182 183 180 178 171 169 172 175 177 177 176 176 180 181 182 181 183 182 182 187 175 185 183 170 179 165 164 147 142 133 111 108 84 63 97 105 77 78 46 40 23 355 358 359 17
102 124 163 136 185 202 203 163 149 178 202 222 222 236 267 356 23 10 50 38 108 112 77 71 173 264 60 140 145 187 191 203 194 216 226 196 194 187 184 184 184 183 183 182 177 175 174 175 176 178 180 182 181 184 185 184 187 187 187 191 195 180 184 185 187 188 185 182 176 168 179 138 135 121 113 59 50 94 46 12 13 349 351 351 3 33
278 176 171 181 163 168 227 303 42 347 173 204 296 285 331 327 349 3 11 26 20 28 91 120 229 2 325 343 61 106 113 146 222 227 208 213 198 186 184 182 182 182 184 182 178 179 174 176 174 178 182 184 183 186 187 187 190 187 192 194 199 198 185 190 197 203 195 170 180 186 189 193 222 96 132 140 139 336 347 353 348 338 346 354 20 61
360 10 108 129 36 177 203 170 311 170 120 136 251 288 257 15 6 346 22 350 358 339 169 159 314 358 32 160 138 185 210 222 232 227 209 190 193 178 182 184 181 181 182 182 178 177 174 173 172 175 180 185 184 185 189 191 189 193 195 193 201 200 190 196 200 205 203 191 179 188 203 211 218 243 268 259 267 290 291 318 326 351 358 33 70 71
208 103 125 142 181 207 184 184 212 306 294 132 210 207 34 15 298 307 204 285 304 246 56 321 229 146 144 142 146 222 226 214 204 196 191 182 175 170 183 182 180 180 180 182 176 177 173 171 174 175 178 183 184 185 189 193 191 193 198 196 201 202 199 202 198 205 202 203 201 201 204 209 215 229 220 245 256 245 228 270 320 21 60 78 86 97
309 85 130 178 171 181 135 229 124 209 353 151 239 86 89 254 318 299 337 168 247 355 45 347 359 358 302 152 236 172 188 182 184 172 177 167 163 168 175 180 180 181 179 179 177 174 175 176 176 178 178 182 186 189 186 192 195 194 202 201 196 200 200 201 205 203 204 209 217 224 228 220 219 232 226 228 251 234 242 224 146 118 104 89 94 97
268 195 134 197 53 127 177 189 170 171 271 296 18 86 251 132 216 158 265 342 341 24 355 84 321 4 348 55 109 149 184 174 178 166 163 168 170 174 174 179 181 179 176 178 179 176 176 179 176 180 179 181 182 193 189 188 196 195 199 202 208 197 197 201 203 206 207 210 217 226 234 232 217 229 238 238 236 234 252 243 115 101 100 107 108 107
204 298 136 160 198 143 185 217 239 145 172 257 231 223 181 286 347 304 35 318 298 337 317 7 329 64 46 26 351 4 168 173 177 178 183 177 173 173 176 177 178 179 178 179 179 177 176 179 178 178 181 182 181 188 192 186 192 198 199 203 204 206 201 205 207 209 216 215 218 224 222 230 228 222 245 221 215 228 243 148 123 114 109 107 106 100
210 308 313 134 131 180 199 196 246 175 181 175 215 196 176 263 20 310 239 316 349 329 345 341 333 13 58 12 3 11 135 178 183 185 186 181 170 175 174 174 177 176 177 179 177 177 177 178 181 177 183 187 180 184 188 187 193 196 200 202 204 207 207 212 216 217 219 219 218 227 235 222 209 207 199 189 176 191 129 112 107 109 112 113 104 103
208 215 308 139 174 216 190 122 336 300 299 257 261 256 260 217 220 264 60 171 290 318 353 316 339 316 70 47 28 355 121 207 192 179 182 183 169 172 169 171 173 170 175 180 178 178 178 178 181 180 181 188 182 184 188 187 193 194 198 201 204 207 212 214 213 216 215 219 220 229 223 211 194 193 180 164 160 143 130 120 114 117 116 108 103 104
328 285 279 206 201 227 70 96 20 314 279 289 268 271 277 266 293 281 306 78 274 93 311 303 316 0 75 66 41 39 209 198 178 175 182 176 166 170 166 165 170 171 175 179 180 178 180 178 181 181 182 188 187 187 190 189 194 197 196 201 205 207 210 212 214 213 213 213 216 214 212 194 191 175 167 158 145 136 126 120 120 122 118 112 110 102
284 235 237 240 191 134 141 125 150 273 277 230 223 251 242 254 267 299 316 348 308 269 267 320 287 44 99 113 83 98 306 226 149 185 176 172 163 165 165 164 168 170 175 178 179 179 180 179 181 183 186 190 189 188 190 195 195 196 197 201 203 209 211 210 214 213 211 210 211 205 202 193 176 167 162 148 134 130 126 124 124 123 119 118 113 106
226 165 271 273 254 201 171 173 182 166 225 246 270 196 238 253 238 290 299 272 277 355 324 313 320 356 111 130 149 190 191 182 171 160 180 163 163 168 167 165 167 167 170 176 177 178 181 180 184 188 189 192 193 193 191 199 199 195 198 202 205 209 207 212 213 217 215 211 208 199 200 182 169 162 149 134 127 126 125 125 124 123 122 118 113 109
237 178 222 264 268 266 262 263 320 173 194 187 255 201 219 228 199 205 235 179 271 46 297 285 313 6 354 324 173 191 201 176 139 148 163 168 166 171 168 164 168 170 172 175 175 175 180 182 187 192 192 196 197 197 195 199 202 202 200 200 203 208 205 207 207 209 211 209 209 203 193 171 164 152 142 133 129 130 128 126 126 126 120 116 113 109
257 192 253 277 290 296 335 0 64 283 265 249 158 206 196 227 216 241 291 278 297 102 275 36 13 340 340 358 6 101 214 205 164 161 166 160 163 169 167 167 171 173 175 179 178 177 181 187 193 196 195 201 201 200 201 202 203 205 204 200 201 204 204 202 201 203 208 209 210 206 183 167 158 146 138 133 130 131 131 129 128 124 117 116 113 111
217 260 207 261 266 304 347 340 20 304 290 294 220 172 169 194 203 235 255 328 14 291 279 66 3 343 352 345 5 356 157 209 174 171 166 154 160 166 168 167 169 175 175 176 179 181 184 187 191 196 196 200 206 203 207 205 207 207 205 200 199 201 198 195 196 203 206 201 198 193 168 155 145 139 133 129 131 131 128 125 119 113 112 113 110 107
268 265 94 248 224 22 17 191 283 232 284 315 295 172 187 188 200 229 256 283 270 284 309 14 357 318 341 340 346 359 309 168 165 165 151 149 155 159 166 171 176 178 175 178 178 180 185 187 189 192 194 198 203 204 207 210 207 207 204 205 200 201 195 190 195 202 203 193 188 173 154 142 135 130 127 128 129 130 126 120 118 117 113 110 107 105
279 241 116 243 214 175 161 186 190 238 212 232 222 229 223 209 221 240 265 259 253 267 296 308 311 303 296 336 337 60 63 128 119 140 149 162 164 166 171 176 181 182 180 182 180 182 186 190 189 191 194 199 201 204 208 209 212 208 206 203 201 198 194 189 194 199 191 187 176 154 149 138 132 132 130 131 132 129 125 123 120 117 115 111 110 109
274 112 152 202 232 171 139 193 217 242 254 263 237 231 232 241 258 256 264 230 273 267 271 273 281 287 49 51 18 90 114 165 155 170 177 170 171 175 181 183 184 186 185 185 183 184 186 190 192 191 194 198 202 204 208 209 211 213 210 205 199 197 188 186 184 187 185 178 157 151 141 138 135 133 134 132 129 130 128 124 122 120 116 113 111 111
244 90 209 206 244 175 160 210 205 248 256 266 274 246 236 228 242 206 240 214 239 285 269 262 264 266 101 122 134 162 186 195 190 178 174 179 180 178 187 188 187 189 188 185 184 185 185 190 190 193 196 199 201 204 205 206 209 206 206 193 191 184 181 181 176 174 172 154 149 147 144 138 137 136 133 135 135 133 126 125 126 122 119 120 119 113
223 181 195 199 241 145 117 226 232 248 252 240 205 101 213 221 269 259 245 217 238 279 267 263 320 15 19 114 216 171 204 200 204 195 184 189 187 185 191 192 190 188 187 187 186 186 188 191 190 193 197 200 203 204 203 202 206 201 196 184 181 169 174 170 169 165 156 150 152 147 139 140 140 137 138 137 134 130 131 129 126 125 125 122 119 119
217 251 140 29 274 99 138 177 232 238 243 82 63 38 353 320 301 258 245 235 217 217 285 329 320 30 147 186 246 178 199 206 210 177 192 194 182 193 197 196 195 188 185 187 186 191 190 192 193 191 194 202 201 204 202 199 200 191 180 169 169 166 170 165 162 157 151 151 147 144 146 145 142 140 137 135 135 135 133 131 126 125 123 125 124 116
182 190 117 210 276 195 137 221 233 246 76 70 140 76 317 291 273 267 283 289 265 221 253 271 290 286 254 246 246 8 55 109 146 193 188 187 193 198 200 196 196 188 185 186 191 196 186 185 186 181 184 198 197 183 180 177 172 165 167 168 168 168 164 160 155 151 150 148 148 148 147 146 143 139 138 139 138 136 133 128 129 131 132 131 126 126
164 184 136 192 321 236 235 186 241 49 32 35 87 54 51 217 266 259 254 204 169 241 246 275 309 323 330 201 177 102 133 143 158 173 190 174 192 196 198 197 190 187 190 189 190 186 186 187 186 184 181 175 178 181 189 179 175 176 175 173 165 159 158 155 152 151 150 149 150 150 148 146 142 140 141 141 140 137 134 135 137 134 131 128 124 118
226 132 213 125 11 345 353 318 348 352 190 134 153 129 230 356 183 286 19 73 60 48 332 319 323 344 167 159 134 136 143 168 195 159 171 173 179 192 196 192 187 188 183 181 180 173 171 169 181 178 173 179 191 190 195 181 179 178 170 165 158 157 154 153 150 148 150 150 151 150 149 146 144 144 145 144 143 140 138 138 138 135 135 133 131 128
229 272 101 266 144 291 322 358 157 127 96 101 69 95 99 308 326 324 280 122 47 39 2 327 323 43 133 133 142 142 166 203 215 157 160 172 175 180 190 161 159 168 162 164 148 163 170 178 184 174 187 184 191 193 185 176 177 175 168 162 158 155 154 154 151 153 153 152 150 150 148 148 146 146 147 148 145 140 139 140 138 136 141 138 134 128
202 272 236 280 129 231 247 299 68 36 57 17 96 90 112 218 264 275 256 111 44 14 10 341 333 134 142 141 140 167 200 199 108 90 137 170 174 182 185 182 182 177 171 173 176 183 169 161 172 167 172 180 180 177 171 173 177 177 172 163 158 156 153 153 149 152 152 149 149 148 147 148 147 147 148 147 140 140 142 142 139 138 142 134 129 130
192 200 206 230 244 254 299 253 89 41 63 109 100 108 74 207 191 253 250 46 28 20 8 351 359 146 146 146 158 184 243 103 104 90 92 171 186 179 201 188 183 177 173 166 148 146 141 147 153 169 173 181 174 164 171 175 179 181 170 165 157 154 151 149 149 148 145 145 146 145 144 145 145 146 147 140 138 142 140 137 138 143 141 139 140 139
182 189 231 255 249 125 244 293 163 149 94 91 290 107 112 63 258 254 48 28 27 22 23 1 46 133 161 166 197 180 71 47 74 104 102 115 147 165 178 184 181 184 183 163 140 142 152 161 169 165 168 161 158 164 168 173 172 168 162 157 155 148 141 140 140 142 143 144 144 144 143 142 144 143 140 138 139 138 137 141 142 143 141 141 132 129
195 169 178 260 237 227 177 252 75 72 55 31 88 92 108 218 57 55 73 51 17 43 41 22 56 126 182 204 219 28 61 78 62 82 108 119 126 139 156 157 150 124 92 106 134 158 149 145 139 140 137 142 155 156 160 162 158 160 152 153 148 136 133 135 138 141 143 145 145 142 141 140 137 137 136 136 137 139 141 141 143 141 143 142 134 144
165 208 189 181 144 93 217 233 184 132 72 151 134 135 195 314 69 76 108 108 12 56 47 58 54 109 197 208 254 312 41 61 55 44 38 62 72 146 162 178 181 167 155 143 154 156 150 141 147 141 140 144 149 151 157 158 156 149 148 144 134 133 134 135 139 144 145 144 142 140 139 137 138 137 138 140 143 143 142 146 143 140 139 138 148 152
47 248 180 154 210 215 174 176 60 52 67 155 215 27 82 19 14 8 334 87 91 50 51 87 91 106 183 253 256 254 258 261 215 163 217 202 203 172 175 172 168 178 166 165 158 155 160 148 141 136 136 135 140 150 153 154 148 145 144 134 134 130 132 138 142 143 142 141 141 140 139 140 140 138 140 144 147 147 148 147 143 147 150 156 164 161
38 5 360 353 140 283 41 41 47 25 15 34 287 317 345 7 11 359 332 324 319 72 352 40 79 133 179 185 192 240 242 245 254 226 241 227 200 201 194 187 181 174 176 163 156 155 167 153 143 137 135 135 142 150 155 154 145 143 138 135 139 140 141 142 143 143 142 144 144 143 145 146 146 145 147 150 154 153 152 146 151 155 158 169 176 170
55 14 324 279 115 100 70 41 22 60 49 64 91 17 359 352 350 287 279 285 320 356 345 356 21 116 166 192 200 163 218 148 209 218 226 222 228 192 188 179 173 170 167 162 153 163 163 145 142 140 137 137 146 152 151 150 149 147 140 142 147 147 146 145 145 145 147 146 147 149 150 149 149 150 151 157 162 162 156 154 160 164 169 179 181 176
45 11 324 226 80 206 118 56 56 65 50 40 45 39 30 12 2 349 324 296 285 295 334 1 345 327 288 203 221 318 132 217 220 215 209 221 218 202 190 184 178 177 174 172 162 161 155 151 149 146 143 146 156 155 148 146 151 141 143 149 151 151 150 149 147 146 148 149 150 152 154 153 155 153 157 165 168 165 161 161 167 169 177 188 182 182
120 357 281 24 292 209 102 54 25 95 73 55 34 22 12 1 356 358 355 335 321 312 289 289 308 282 304 283 268 269 282 222 247 235 223 206 213 199 196 189 179 176 176 172 164 175 163 163 156 152 154 156 162 160 151 151 148 147 150 152 152 153 152 151 154 154 155 155 156 158 160 160 147 156 163 170 171 168 167 170 173 178 185 194 186 188
316 313 12 347 287 125 112 38 360 196 85 49 32 26 15 2 350 2 9 15 15 10 7 349 255 315 297 297 331 312 300 277 255 260 254 230 202 196 191 188 185 178 171 175 174 183 174 169 165 161 164 160 162 159 158 157 150 152 157 155 156 156 156 154 156 158 157 159 159 161 165 162 163 174 168 170 175 173 174 180 181 181 186 193 203 203
280 91 343 281 189 75 37 13 345 343 28 19 20 10 2 360 358 8 12 18 15 11 7 2 6 126 270 268 265 272 288 316 332 303 277 267 247 204 184 182 182 177 179 178 173 184 181 179 171 168 171 162 162 165 164 162 158 161 164 160 161 162 159 156 159 163 163 167 166 164 167 167 171 176 174 172 175 169 130 47 51 29 284 178 83 57
14 7 333 360 4 69 18 2 4 320 309 57 15 7 5 2 5 17 20 15 16 16 9 5 9 10 18 20 328 304 277 258 307 307 297 292 289 250 206 187 181 183 182 178 177 186 189 184 180 175 175 166 164 171 170 168 168 168 171 169 169 169 166 162 166 171 172 173 177 172 173 171 175 177 179 177 176 174 166 175 143 81 44 22 112 91